Weather History for KONA - March, 2014

Change the Weather History Date:

Monday, March 17, 2014

  Actual Average (KLSE) Record (KLSE)
Temperature  
Mean Temperature 30 °F 35 °F  
Max Temperature 37 °F 44 °F 83 °F (2012)
Min Temperature 23 °F 26 °F -7 °F (1941)
Degree Days  
Heating Degree Days 35 30  
Month to date heating degree days 572  
Since 1 July heating degree days 6081  
Cooling Degree Days 0 0  
Month to date cooling degree days 0  
Year to date cooling degree days 0  
Moisture  
Dew Point 17 °F    
Average Humidity 62    
Maximum Humidity 70    
Minimum Humidity 52    
Precipitation  
Precipitation 0.00 in 0.07 in 1.02 in (1966)
Month to date precipitation 0.99  
Year to date precipitation 3.16  
Snow  
Snow 0.00 in 0.30 in 8.40 in (1965)
Month to date snowfall 4.8  
Since 1 July snowfall 39.3  
Snow Depth -    
Sea Level Pressure  
Sea Level Pressure 29.81 in    
Wind  
Wind Speed 6 mph (SSE)    
Max Wind Speed 14 mph    
Max Gust Speed 21 mph    
Visibility 10 miles    
Events Snow    
T = Trace of Precipitation, MM = Missing Value Source: NWS Daily Summary

Daily Weather History Graph

Daily Weather History Graph

Search for Another Location

Airport or City:

Trip Planner

Search our weather history database for the weather conditions in past years. The results will help you decide how hot, cold, wet, or windy it might be!

Date:

Astronomy

Mar. 17, 2014 Rise Set
Actual Time 7:15 AM CDT 7:15 PM CDT
Civil Twilight 6:46 AM CDT 7:44 PM CDT
Nautical Twilight 6:13 AM CDT 8:18 PM CDT
Astronomical Twilight 5:38 AM CDT 8:52 PM CDT
Moon 8:36 PM CDT (3/17) 7:28 AM CDT (3/17)
Length of Visible Light 12h 57m
Length of Day
12h 00m
Full, 99% of the Moon is Illuminated
Mar 17
Full
Mar 23
Last Quarter
Mar 30
New
Apr 7
First Quarter
Apr 15
Full

Hourly Weather History & Observations

Time (CDT) Temp. Windchill Dew Point Humidity Pressure Visibility Wind Dir Wind Speed Gust Speed Precip Events Conditions
12:00 AM 23.0 °F 18.4 °F 8.6 °F 54% 30.11 in 10.0 mi SSE 3.5 mph - N/A   Clear
12:19 AM 23.0 °F 18.4 °F 8.6 °F 54% 30.10 in 10.0 mi SSE 3.5 mph - N/A   Clear
12:39 AM 23.0 °F - 10.4 °F 59% 30.09 in 10.0 mi Calm Calm - N/A   Clear
1:00 AM 23.0 °F 17.0 °F 10.4 °F 59% 30.07 in 10.0 mi South 4.6 mph - N/A   Mostly Cloudy
1:19 AM 23.0 °F 15.8 °F 10.4 °F 59% 30.07 in 10.0 mi SSE 5.8 mph - N/A   Scattered Clouds
1:39 AM 23.0 °F 17.0 °F 10.4 °F 59% 30.06 in 10.0 mi South 4.6 mph - N/A   Scattered Clouds
2:00 AM 23.0 °F - 12.2 °F 63% 30.06 in 10.0 mi Calm Calm - N/A   Mostly Cloudy
2:19 AM 23.0 °F 13.9 °F 12.2 °F 63% 30.05 in 10.0 mi South 8.1 mph - N/A   Overcast
2:39 AM 23.0 °F 15.8 °F 12.2 °F 63% 30.03 in 10.0 mi South 5.8 mph - N/A   Overcast
3:00 AM 23.0 °F 14.7 °F 12.2 °F 63% 30.02 in 10.0 mi SSE 6.9 mph - N/A   Overcast
3:19 AM 23.0 °F 13.1 °F 12.2 °F 63% 30.01 in 10.0 mi South 9.2 mph - N/A   Overcast
3:39 AM 23.0 °F 14.7 °F 12.2 °F 63% 29.99 in 10.0 mi SSE 6.9 mph - N/A   Overcast
4:00 AM 23.0 °F 14.7 °F 12.2 °F 63% 29.98 in 10.0 mi SSE 6.9 mph - N/A   Overcast
4:19 AM 23.0 °F 12.4 °F 12.2 °F 63% 29.96 in 10.0 mi SSE 10.4 mph - N/A   Overcast
4:39 AM 23.0 °F 13.1 °F 12.2 °F 63% 29.95 in 10.0 mi SSE 9.2 mph - N/A   Overcast
4:59 AM 23.0 °F 15.8 °F 12.2 °F 63% 29.94 in 10.0 mi South 5.8 mph - N/A   Overcast
5:19 AM 23.0 °F 15.8 °F 12.2 °F 63% 29.94 in 10.0 mi SSE 5.8 mph - N/A   Overcast
5:40 AM 23.0 °F 17.0 °F 12.2 °F 63% 29.93 in 10.0 mi South 4.6 mph - N/A   Overcast
5:59 AM 23.0 °F 15.8 °F 12.2 °F 63% 29.92 in 10.0 mi South 5.8 mph - N/A   Overcast
6:19 AM 23.0 °F 13.1 °F 12.2 °F 63% 29.91 in 10.0 mi SSE 9.2 mph - N/A   Overcast
6:40 AM 23.0 °F 12.4 °F 14.0 °F 68% 29.90 in 10.0 mi SE 10.4 mph - N/A   Overcast
6:59 AM 23.0 °F 12.4 °F 14.0 °F 68% 29.88 in 10.0 mi SSE 10.4 mph - N/A   Mostly Cloudy
7:19 AM 23.0 °F 14.7 °F 14.0 °F 68% 29.89 in 10.0 mi SSE 6.9 mph - N/A   Mostly Cloudy
7:40 AM 23.0 °F 12.4 °F 12.2 °F 63% 29.89 in 10.0 mi SSE 10.4 mph - N/A   Overcast
7:59 AM 23.0 °F 13.9 °F 12.2 °F 63% 29.87 in 10.0 mi SSE 8.1 mph - N/A   Overcast
8:19 AM 23.0 °F 13.9 °F 12.2 °F 63% 29.86 in 10.0 mi SSE 8.1 mph - N/A   Overcast
8:39 AM 23.0 °F 13.1 °F 12.2 °F 63% 29.86 in 10.0 mi SSE 9.2 mph - N/A   Overcast
9:00 AM 23.0 °F 14.7 °F 12.2 °F 63% 29.85 in 10.0 mi SSE 6.9 mph - N/A   Overcast
9:19 AM 23.0 °F 17.0 °F 12.2 °F 63% 29.84 in 10.0 mi South 4.6 mph - N/A   Mostly Cloudy
9:40 AM 23.0 °F 13.1 °F 12.2 °F 63% 29.83 in 10.0 mi SSE 9.2 mph - N/A   Mostly Cloudy
10:00 AM 24.8 °F 12.9 °F 14.0 °F 64% 29.82 in 10.0 mi SSE 13.8 mph - N/A   Overcast
10:19 AM 24.8 °F 17.9 °F 14.0 °F 64% 29.81 in 10.0 mi SSE 5.8 mph - N/A   Scattered Clouds
10:40 AM 28.4 °F 21.2 °F 15.8 °F 59% 29.79 in 10.0 mi South 6.9 mph 18.4 mph N/A   Clear
11:00 AM 28.4 °F 18.0 °F 17.6 °F 64% 29.78 in 10.0 mi South 12.7 mph 20.7 mph N/A   Scattered Clouds
11:19 AM 28.4 °F 21.2 °F 17.6 °F 64% 29.77 in 10.0 mi South 6.9 mph - N/A   Mostly Cloudy
11:40 AM 28.4 °F 18.0 °F 17.6 °F 64% 29.76 in 4.0 mi South 12.7 mph 18.4 mph N/A Snow Light Snow
11:59 AM 28.4 °F 21.2 °F 19.4 °F 69% 29.75 in 10.0 mi SSE 6.9 mph 16.1 mph N/A Snow Light Snow
12:20 PM 30.2 °F 21.9 °F 21.2 °F 69% 29.73 in 10.0 mi SSE 9.2 mph - N/A   Overcast
12:40 PM 30.2 °F 22.6 °F 19.4 °F 64% 29.73 in 10.0 mi SSE 8.1 mph - N/A   Overcast
12:59 PM 32.0 °F 23.0 °F 19.4 °F 60% 29.73 in 10.0 mi SSE 11.5 mph 19.6 mph N/A   Mostly Cloudy
1:20 PM 32.0 °F 22.1 °F 19.4 °F 60% 29.71 in 10.0 mi SSE 13.8 mph - N/A   Scattered Clouds
1:40 PM 32.0 °F 23.6 °F 19.4 °F 60% 29.72 in 10.0 mi SSE 10.4 mph - N/A   Mostly Cloudy
1:59 PM 32.0 °F 25.6 °F 19.4 °F 60% 29.71 in 10.0 mi SSE 6.9 mph - N/A   Scattered Clouds
2:20 PM 33.8 °F 25.3 °F 21.2 °F 60% 29.70 in 10.0 mi SSE 11.5 mph 16.1 mph N/A   Scattered Clouds
2:40 PM 33.8 °F 25.3 °F 21.2 °F 60% 29.69 in 10.0 mi South 11.5 mph - N/A   Clear
2:59 PM 33.8 °F 28.6 °F 19.4 °F 56% 29.68 in 10.0 mi South 5.8 mph - N/A   Scattered Clouds
3:20 PM 33.8 °F 27.0 °F 19.4 °F 56% 29.67 in 10.0 mi SSE 8.1 mph - N/A   Scattered Clouds
3:40 PM 35.6 °F 29.9 °F 21.2 °F 56% 29.67 in 10.0 mi South 6.9 mph - N/A   Scattered Clouds
3:59 PM 35.6 °F 30.7 °F 21.2 °F 56% 29.67 in 10.0 mi SSE 5.8 mph - N/A   Clear
4:20 PM 35.6 °F 30.7 °F 21.2 °F 56% 29.66 in 10.0 mi SSE 5.8 mph - N/A   Clear
4:40 PM 37.4 °F 32.8 °F 21.2 °F 52% 29.65 in 10.0 mi SSE 5.8 mph - N/A   Clear
4:59 PM 37.4 °F 32.1 °F 21.2 °F 52% 29.65 in 10.0 mi SSE 6.9 mph - N/A   Clear
5:20 PM 37.4 °F 33.8 °F 21.2 °F 52% 29.65 in 10.0 mi South 4.6 mph - N/A   Clear
5:40 PM 37.4 °F 32.8 °F 21.2 °F 52% 29.66 in 10.0 mi SE 5.8 mph - N/A   Clear
5:59 PM 35.6 °F 30.7 °F 21.2 °F 56% 29.66 in 10.0 mi SE 5.8 mph - N/A   Clear
6:19 PM 35.6 °F 31.7 °F 21.2 °F 56% 29.67 in 10.0 mi SE 4.6 mph - N/A   Clear
6:40 PM 35.6 °F 30.7 °F 21.2 °F 56% 29.67 in 10.0 mi SE 5.8 mph - N/A   Clear
6:59 PM 35.6 °F 29.9 °F 23.0 °F 60% 29.67 in 10.0 mi SE 6.9 mph - N/A   Clear
7:19 PM 33.8 °F 27.0 °F 23.0 °F 65% 29.66 in 10.0 mi SSE 8.1 mph - N/A   Clear
7:40 PM 33.8 °F 30.8 °F 23.0 °F 65% 29.67 in 10.0 mi SSE 3.5 mph - N/A   Clear
7:59 PM 33.8 °F 29.6 °F 23.0 °F 65% 29.68 in 10.0 mi SSE 4.6 mph - N/A   Clear
8:19 PM 33.8 °F - 23.0 °F 65% 29.68 in 10.0 mi Calm Calm - N/A   Clear
8:40 PM 32.0 °F - 23.0 °F 69% 29.68 in 10.0 mi Calm Calm - N/A   Clear
8:59 PM 32.0 °F - 23.0 °F 69% 29.69 in 10.0 mi Calm Calm - N/A   Clear
9:19 PM 32.0 °F 28.7 °F 23.0 °F 69% 29.69 in 10.0 mi SSE 3.5 mph - N/A   Clear
9:39 PM 32.0 °F 28.7 °F 23.0 °F 69% 29.69 in 10.0 mi SSE 3.5 mph - N/A   Clear
9:59 PM 32.0 °F 27.5 °F 23.0 °F 69% 29.69 in 10.0 mi SSE 4.6 mph - N/A   Clear
10:20 PM 32.0 °F 26.4 °F 23.0 °F 69% 29.69 in 10.0 mi SSE 5.8 mph - N/A   Clear
10:39 PM 32.0 °F 27.5 °F 23.0 °F 69% 29.69 in 10.0 mi SE 4.6 mph - N/A   Clear
10:59 PM 33.8 °F 28.6 °F 24.8 °F 70% 29.68 in 10.0 mi SSE 5.8 mph - N/A   Clear
11:20 PM 33.8 °F 28.6 °F 23.0 °F 65% 29.69 in 10.0 mi SSE 5.8 mph - N/A   Clear
11:39 PM 33.8 °F 28.6 °F 24.8 °F 70% 29.69 in 10.0 mi SE 5.8 mph - N/A   Clear
11:59 PM 32.0 °F 27.5 °F 23.0 °F 69% 29.70 in 10.0 mi SSE 4.6 mph - N/A   Clear